CZ-6A DEB, 54989

Orbit data source: Space-Track

CZ-6A DEB, 54989 is space debris in SSO originally from a launch on Fri, 11 Nov 2022 UTC launched from the Taiyaun Space Center, China (TSC). Debris objects in space refer to the collection of defunct objects orbiting the Earth. Examples of debris include non-operational satellites, rocket bodies, and fragments generated from explosions, collisions, or faulty payload assembly.

Loading next visibility...
Identifier
54989, 2022-151UE
Orbit
SSO
Country
Flag of CNCN / PRC
Related business
Manufacturer
SAST
Mission
Spacecraft
Bus & Motor
Unknown
Mass
Unknown
Launch date (UTC)
2022-11-11 (3 years ago)
Launch vehicle
Unknown
Launch site
Taiyaun Space Center, China (TSC)
Object type
Payload
Rocket body
Debris
Shape & HBR
Unknown shape, 0.2 m
Radar Cross Section
Small (<0.1 m²)

Expand to show TLE details & history
Last TLE update: 12 hours ago

TLE from 12 hours ago
0 CZ-6A DEB
1 54989U 22151UE  26130.00402443  .00000708  00000-0  31818-3 0  9994
2 54989  98.7574 150.3827 0069341  93.2559 267.6555 14.24231381179900
Epoch: 2026-05-10T00:05Z
TLE epoch observation values (Epoch: 2026-05-10T00:05:47.710Z)
Latitude
-0.00011°
Longitude
-78.87941°
Altitude
816.382 km
Speed
7.444 km/s
True Right ascension
10h 01m 31s
True Declination
0° 00' 00"
Sunlit
Object was in daylight at epoch
Visualization orbit readout
Latitude
Unknown
Longitude
Unknown
Altitude
Unknown
Speed
Unknown
Apparent Right ascension
Unknown
Apparent Declination
Unknown
Sunlit
N/A
Visualization observer readout
Local Sidereal Time
19:51:06
Azimuth
Unknown
Elevation
Unknown
Doppler factor
Unknown
Orbital elements
Apogee altitude
858.064 km
Perigee altitude
758.402 km
Semi-major axis
7,186.37 km
Eccentricity
0.00693
Inclination
98.7574°
RAAN
150.3827°
Arg. of periapsis
93.2559°
True anomaly
266.86188°
Mean anomaly
267.6555°
Eccentric anomaly
267.25866°
Mean motion
3.5627 °/min
Orbital period
101.05 mins
BSTAR
0.00031818
Loading maneuver chart data...
Computing Atmospheric mass density...
Loading historical data...
Loading historical data...
Loading historical data...
Loading historical data...
Loading historical data...
Loading historical data...
Loading historical data...

Documentation

Showing up to 5 results
|